STARLINK-31948, 59941

Orbit data source: Space-Track

STARLINK-31948, 59941 is a payload satellite owned by SpaceX/Seattle (US) in LEO that was launched on Sat, 01 Jun 2024 UTC via an FALCON 9 launch vehicle from the Air Force Eastern Test Range (AFETR). Payload-class satellites include a variety of spacecraft equipped with specific instruments for various scientific and technological missions. These include communications satellites like Starlink; space stations such as the ISS; scientific satellites like the Hubble; Earth observation satellites from companies like Planet Labs, Umbra, and HawkEye 360; GPS; miniature CubeSats for education and research; and military/defense satellites.

Loading next visibility...
Identifier
59941, 2024-106V
Orbit
LEO
Country
Flag of USUS
Related business
Manufacturer
SpaceX/Seattle
Mission
Operational Commercial Communications
Bus & Motor
STARLINK V2M, Unknown motor
Mass
730 kg wet, ~700 kg dry
Launch date (UTC)
2024-06-01 (2 years ago)
Launch vehicle
FALCON 9
Launch site
Air Force Eastern Test Range (AFETR)
Object type
Payload
Rocket body
Debris
Shape & HBR
Box + 2 Pan, 17.7 m
Radar Cross Section
33.884 m², Large (>1 m²)

Expand to show TLE details & history
Last TLE update: 20 hours ago

TLE from 20 hours ago
0 STARLINK-31948
1 59941U 24106V   26033.40998446  .00001406  00000-0  60616-4 0  9993
2 59941  42.9990 168.5113 0001062 295.9147  64.1595 15.27576295 95164
Epoch: 2026-02-02T09:50Z
TLE epoch observation values (Epoch: 2026-02-02T09:50:22.657Z)
Latitude
-0.00002°
Longitude
-111.6888°
Altitude
482.518 km
Speed
7.626 km/s
True Right ascension
11h 14m 02s
True Declination
0° 00' 00"
Sunlit
Object was in full shadow at epoch
Visualization orbit readout
Latitude
Unknown
Longitude
Unknown
Altitude
Unknown
Speed
Unknown
Apparent Right ascension
Unknown
Apparent Declination
Unknown
Sunlit
N/A
Visualization observer readout
Local Sidereal Time
07:48:04
Azimuth
Unknown
Elevation
Unknown
Doppler factor
Unknown
Orbital elements
Apogee altitude
485.734 km
Perigee altitude
484.277 km
Semi-major axis
6,863.143 km
Eccentricity
0.00011
Inclination
42.999°
RAAN
168.5113°
Arg. of periapsis
295.9147°
True anomaly
64.17045°
Mean anomaly
64.1595°
Eccentric anomaly
64.16498°
Mean motion
3.81732 °/min
Orbital period
94.31 mins
BSTAR
0.000060616
Loading maneuver chart data...
Computing Atmospheric mass density...
Loading historical data...
Loading historical data...
Loading historical data...
Loading historical data...
Loading historical data...
Loading historical data...
Loading historical data...

Documentation

Showing up to 5 results
|